Time,TemperatureF,DewpointF,PressureIn,WindDirection,WindDirectionDegrees,WindSpeedMPH,WindSpeedGustMPH,Humidity,HourlyPrecipIn,Conditions,Clouds,dailyrainin,SoftwareType,DateUTC
2013-01-06 00:00:00,26.5,25.3,30.14,ENE,61,0.0,0.0,95,0.00,,,0.00,Wunderground v.1.12,2013-01-06 07:00:00,
2013-01-06 00:05:00,26.9,25.7,30.14,ENE,61,0.0,0.0,95,0.00,,,0.00,Wunderground v.1.12,2013-01-06 07:05:00,
2013-01-06 00:10:00,27.2,26.0,30.14,ENE,61,0.0,0.0,95,0.00,,,0.00,Wunderground v.1.12,2013-01-06 07:10:00,
2013-01-06 00:15:00,26.9,25.7,30.13,ENE,61,0.0,0.0,95,0.00,,,0.00,Wunderground v.1.12,2013-01-06 07:15:00,
2013-01-06 00:20:00,26.8,25.3,30.13,ENE,61,0.0,0.0,94,0.00,,,0.00,Wunderground v.1.12,2013-01-06 07:20:00,
2013-01-06 00:30:00,26.6,25.4,30.13,ENE,61,0.0,0.0,95,0.00,,,0.00,Wunderground v.1.12,2013-01-06 07:30:00,
2013-01-06 00:35:00,26.6,25.4,30.13,ENE,61,0.0,0.0,95,0.00,,,0.00,Wunderground v.1.12,2013-01-06 07:35:00,
2013-01-06 00:40:00,27.0,25.8,30.13,ENE,61,0.0,0.0,95,0.00,,,0.00,Wunderground v.1.12,2013-01-06 07:40:00,
2013-01-06 00:45:00,26.6,25.4,30.13,ENE,61,0.0,0.0,95,0.00,,,0.00,Wunderground v.1.12,2013-01-06 07:45:00,
2013-01-06 00:50:00,27.0,25.8,30.13,ENE,61,0.0,0.0,95,0.00,,,0.00,Wunderground v.1.12,2013-01-06 07:50:00,
2013-01-06 00:55:00,27.1,25.6,30.12,ENE,61,0.0,0.0,94,0.00,,,0.00,Wunderground v.1.12,2013-01-06 07:55:00,
2013-01-06 01:00:00,26.7,25.5,30.12,ENE,61,0.0,0.0,95,0.00,,,0.00,Wunderground v.1.12,2013-01-06 08:00:00,
2013-01-06 01:05:00,26.8,25.6,30.11,N/A,-737280,0.0,0.0,95,0.00,,,0.00,Wunderground v.1.12,2013-01-06 08:05:00,
2013-01-06 01:10:00,26.9,25.4,30.12,ENE,61,0.0,0.0,94,0.00,,,0.00,Wunderground v.1.12,2013-01-06 08:10:00,
2013-01-06 01:15:00,26.9,25.4,30.12,ENE,61,0.0,0.0,94,0.00,,,0.00,Wunderground v.1.12,2013-01-06 08:15:00,
2013-01-06 01:25:00,26.7,25.5,30.12,ENE,61,0.0,0.0,95,0.00,,,0.00,Wunderground v.1.12,2013-01-06 08:25:00,
2013-01-06 01:35:00,27.1,25.6,30.12,ENE,61,0.0,0.0,94,0.00,,,0.00,Wunderground v.1.12,2013-01-06 08:35:00,
2013-01-06 01:40:00,26.7,25.5,30.12,ENE,61,0.0,0.0,95,0.00,,,0.00,Wunderground v.1.12,2013-01-06 08:40:00,
2013-01-06 01:45:00,26.5,25.3,30.12,ENE,61,0.0,0.0,95,0.00,,,0.00,Wunderground v.1.12,2013-01-06 08:45:00,
2013-01-06 01:50:00,26.5,25.3,30.12,ENE,61,0.0,0.0,95,0.00,,,0.00,Wunderground v.1.12,2013-01-06 08:50:00,
2013-01-06 02:00:00,26.7,25.2,30.11,ENE,61,0.0,0.0,94,0.00,,,0.00,Wunderground v.1.12,2013-01-06 09:00:00,
2013-01-06 02:05:00,26.6,25.4,30.11,ENE,61,0.0,0.0,95,0.00,,,0.00,Wunderground v.1.12,2013-01-06 09:05:00,
2013-01-06 02:10:00,26.6,25.4,30.11,ENE,61,0.0,0.0,95,0.00,,,0.00,Wunderground v.1.12,2013-01-06 09:10:00,
2013-01-06 02:15:00,27.0,25.8,30.11,ENE,61,0.0,0.0,95,0.00,,,0.00,Wunderground v.1.12,2013-01-06 09:15:00,
2013-01-06 02:20:00,26.9,25.7,30.11,ENE,61,0.0,0.0,95,0.00,,,0.00,Wunderground v.1.12,2013-01-06 09:20:00,
2013-01-06 02:25:00,26.9,25.9,30.11,ENE,61,0.0,0.0,96,0.00,,,0.00,Wunderground v.1.12,2013-01-06 09:25:00,
2013-01-06 02:30:00,26.9,25.7,30.11,ENE,61,0.0,0.0,95,0.00,,,0.00,Wunderground v.1.12,2013-01-06 09:30:00,
2013-01-06 02:40:00,27.0,25.8,30.11,ENE,61,0.0,0.0,95,0.00,,,0.00,Wunderground v.1.12,2013-01-06 09:40:00,
2013-01-06 02:45:00,26.9,25.7,30.11,ENE,61,0.0,0.0,95,0.00,,,0.00,Wunderground v.1.12,2013-01-06 09:45:00,
2013-01-06 02:50:00,26.9,25.7,30.11,ENE,61,0.0,0.0,95,0.00,,,0.00,Wunderground v.1.12,2013-01-06 09:50:00,
2013-01-06 03:00:00,27.0,25.8,30.10,ENE,61,0.0,0.0,95,0.00,,,0.00,Wunderground v.1.12,2013-01-06 10:00:00,
2013-01-06 03:05:00,26.6,25.4,30.10,ENE,61,0.0,0.0,95,0.00,,,0.00,Wunderground v.1.12,2013-01-06 10:05:00,
2013-01-06 03:10:00,26.7,25.2,30.10,ENE,61,0.0,0.0,94,0.00,,,0.00,Wunderground v.1.12,2013-01-06 10:10:00,
2013-01-06 03:15:00,27.0,25.8,30.10,ENE,61,0.0,0.0,95,0.00,,,0.00,Wunderground v.1.12,2013-01-06 10:15:00,
2013-01-06 03:20:00,26.6,25.4,30.10,ENE,61,0.0,0.0,95,0.00,,,0.00,Wunderground v.1.12,2013-01-06 10:20:00,
2013-01-06 03:25:00,26.9,25.4,30.10,ENE,61,0.0,0.0,94,0.00,,,0.00,Wunderground v.1.12,2013-01-06 10:25:00,
2013-01-06 03:30:00,27.0,25.5,30.10,ENE,61,0.0,0.0,94,0.00,,,0.00,Wunderground v.1.12,2013-01-06 10:30:00,
2013-01-06 03:35:00,26.7,25.5,30.10,ENE,61,0.0,0.0,95,0.00,,,0.00,Wunderground v.1.12,2013-01-06 10:35:00,
2013-01-06 03:45:00,27.0,25.8,30.10,ENE,61,0.0,0.0,95,0.00,,,0.00,Wunderground v.1.12,2013-01-06 10:45:00,
2013-01-06 03:50:00,26.6,25.4,30.09,ENE,61,0.0,0.0,95,0.00,,,0.00,Wunderground v.1.12,2013-01-06 10:50:00,
2013-01-06 03:55:00,26.6,25.4,30.09,ENE,61,0.0,0.0,95,0.00,,,0.00,Wunderground v.1.12,2013-01-06 10:55:00,
2013-01-06 04:00:00,26.7,25.5,30.09,ENE,61,0.0,0.0,95,0.00,,,0.00,Wunderground v.1.12,2013-01-06 11:00:00,
2013-01-06 04:05:00,26.6,25.4,30.09,ENE,61,0.0,0.0,95,0.00,,,0.00,Wunderground v.1.12,2013-01-06 11:05:00,
2013-01-06 04:10:00,26.5,25.3,30.09,ENE,61,0.0,0.0,95,0.00,,,0.00,Wunderground v.1.12,2013-01-06 11:10:00,
2013-01-06 04:15:00,26.7,25.2,30.08,ENE,61,0.0,0.0,94,0.00,,,0.00,Wunderground v.1.12,2013-01-06 11:15:00,
2013-01-06 04:20:00,26.7,25.5,30.08,ENE,61,0.0,0.0,95,0.00,,,0.00,Wunderground v.1.12,2013-01-06 11:20:00,
2013-01-06 04:25:00,26.9,25.7,30.07,ENE,61,0.0,0.0,95,0.00,,,0.00,Wunderground v.1.12,2013-01-06 11:25:00,
2013-01-06 04:30:00,26.9,25.4,30.07,ENE,61,0.0,0.0,94,0.00,,,0.00,Wunderground v.1.12,2013-01-06 11:30:00,
2013-01-06 04:35:00,26.6,25.4,30.07,ENE,61,0.0,0.0,95,0.00,,,0.00,Wunderground v.1.12,2013-01-06 11:35:00,
2013-01-06 04:45:00,26.7,25.5,30.08,ENE,61,0.0,0.0,95,0.00,,,0.00,Wunderground v.1.12,2013-01-06 11:45:00,
2013-01-06 04:50:00,26.7,25.5,30.07,ENE,61,0.0,0.0,95,0.00,,,0.00,Wunderground v.1.12,2013-01-06 11:50:00,
2013-01-06 04:55:00,26.6,25.4,30.07,ENE,61,0.0,0.0,95,0.00,,,0.00,Wunderground v.1.12,2013-01-06 11:55:00,
2013-01-06 05:00:00,26.7,25.5,30.07,ENE,61,0.0,0.0,95,0.00,,,0.00,Wunderground v.1.12,2013-01-06 12:00:00,
2013-01-06 05:05:00,26.8,25.6,30.07,ENE,61,0.0,0.0,95,0.00,,,0.00,Wunderground v.1.12,2013-01-06 12:05:00,
2013-01-06 05:15:00,26.6,25.4,30.07,ENE,61,0.0,0.0,95,0.00,,,0.00,Wunderground v.1.12,2013-01-06 12:15:00,
2013-01-06 05:20:00,26.7,25.5,30.07,ENE,61,0.0,0.0,95,0.00,,,0.00,Wunderground v.1.12,2013-01-06 12:20:00,
2013-01-06 05:25:00,26.8,25.6,30.07,ENE,61,0.0,0.0,95,0.00,,,0.00,Wunderground v.1.12,2013-01-06 12:25:00,
2013-01-06 05:30:00,26.8,25.6,30.06,ENE,61,0.0,0.0,95,0.00,,,0.00,Wunderground v.1.12,2013-01-06 12:30:00,
2013-01-06 05:35:00,26.5,25.3,30.06,ENE,61,0.0,0.0,95,0.00,,,0.00,Wunderground v.1.12,2013-01-06 12:35:00,
2013-01-06 05:40:00,26.4,25.2,30.07,ENE,61,0.0,0.0,95,0.00,,,0.00,Wunderground v.1.12,2013-01-06 12:40:00,
2013-01-06 05:50:00,26.5,25.3,30.06,ENE,61,0.0,0.0,95,0.00,,,0.00,Wunderground v.1.12,2013-01-06 12:50:00,
2013-01-06 05:55:00,26.5,25.3,30.05,ENE,61,0.0,0.0,95,0.00,,,0.00,Wunderground v.1.12,2013-01-06 12:55:00,
2013-01-06 06:05:00,26.5,25.3,30.06,ENE,61,0.0,0.0,95,0.00,,,0.00,Wunderground v.1.12,2013-01-06 13:05:00,
2013-01-06 06:10:00,26.8,25.6,30.06,ENE,61,0.0,0.0,95,0.00,,,0.00,Wunderground v.1.12,2013-01-06 13:10:00,
2013-01-06 06:15:00,26.4,25.4,30.06,ENE,61,0.0,0.0,96,0.00,,,0.00,Wunderground v.1.12,2013-01-06 13:15:00,
2013-01-06 06:20:00,26.5,25.3,30.06,ENE,61,0.0,0.0,95,0.00,,,0.00,Wunderground v.1.12,2013-01-06 13:20:00,
2013-01-06 06:25:00,26.8,25.6,30.06,ENE,61,0.0,0.0,95,0.00,,,0.00,Wunderground v.1.12,2013-01-06 13:25:00,
2013-01-06 06:30:00,26.3,25.1,30.06,ENE,61,0.0,0.0,95,0.00,,,0.00,Wunderground v.1.12,2013-01-06 13:30:00,
2013-01-06 06:35:00,26.4,25.2,30.06,ENE,61,0.0,0.0,95,0.00,,,0.00,Wunderground v.1.12,2013-01-06 13:35:00,
2013-01-06 06:40:00,26.7,25.5,30.06,ENE,61,0.0,0.0,95,0.00,,,0.00,Wunderground v.1.12,2013-01-06 13:40:00,
2013-01-06 06:45:00,26.4,25.4,30.05,ENE,61,0.0,0.0,96,0.00,,,0.00,Wunderground v.1.12,2013-01-06 13:45:00,
2013-01-06 06:55:00,26.4,25.2,30.05,ENE,61,0.0,0.0,95,0.00,,,0.00,Wunderground v.1.12,2013-01-06 13:55:00,
2013-01-06 07:05:00,26.4,25.2,30.05,ENE,61,0.0,0.0,95,0.00,,,0.00,Wunderground v.1.12,2013-01-06 14:05:00,
2013-01-06 07:10:00,26.3,25.1,30.04,ENE,61,0.0,0.0,95,0.00,,,0.00,Wunderground v.1.12,2013-01-06 14:10:00,
2013-01-06 07:15:00,26.2,25.0,30.05,ENE,61,0.0,0.0,95,0.00,,,0.00,Wunderground v.1.12,2013-01-06 14:15:00,
2013-01-06 07:25:00,26.3,25.1,30.04,ENE,61,0.0,0.0,95,0.00,,,0.00,Wunderground v.1.12,2013-01-06 14:25:00,
2013-01-06 07:30:00,26.1,24.9,30.04,ENE,61,0.0,0.0,95,0.00,,,0.00,Wunderground v.1.12,2013-01-06 14:30:00,
2013-01-06 07:35:00,26.2,25.0,30.03,ENE,61,0.0,0.0,95,0.00,,,0.00,Wunderground v.1.12,2013-01-06 14:35:00,
2013-01-06 07:40:00,26.1,24.9,30.03,ENE,61,0.0,0.0,95,0.00,,,0.00,Wunderground v.1.12,2013-01-06 14:40:00,
2013-01-06 07:45:00,25.9,24.7,30.04,ENE,61,0.0,0.0,95,0.00,,,0.00,Wunderground v.1.12,2013-01-06 14:45:00,
2013-01-06 07:50:00,26.1,24.9,30.04,ENE,61,0.0,0.0,95,0.00,,,0.00,Wunderground v.1.12,2013-01-06 14:50:00,
2013-01-06 08:00:00,26.0,24.8,30.03,ENE,61,0.0,0.0,95,0.00,,,0.00,Wunderground v.1.12,2013-01-06 15:00:00,
2013-01-06 08:05:00,26.1,24.9,30.03,ENE,61,0.0,0.0,95,0.00,,,0.00,Wunderground v.1.12,2013-01-06 15:05:00,
2013-01-06 08:10:00,26.4,25.2,30.03,ENE,61,0.0,0.0,95,0.00,,,0.00,Wunderground v.1.12,2013-01-06 15:10:00,
2013-01-06 08:15:00,26.0,24.8,30.03,ENE,61,0.0,0.0,95,0.00,,,0.00,Wunderground v.1.12,2013-01-06 15:15:00,
2013-01-06 08:20:00,25.9,24.7,30.03,ENE,61,0.0,0.0,95,0.00,,,0.00,Wunderground v.1.12,2013-01-06 15:20:00,
2013-01-06 08:30:00,25.7,24.5,30.03,ENE,61,0.0,0.0,95,0.00,,,0.00,Wunderground v.1.12,2013-01-06 15:30:00,
2013-01-06 08:35:00,25.9,24.7,30.02,ENE,61,0.0,0.0,95,0.00,,,0.00,Wunderground v.1.12,2013-01-06 15:35:00,
2013-01-06 08:40:00,26.0,24.8,30.03,ENE,61,0.0,0.0,95,0.00,,,0.00,Wunderground v.1.12,2013-01-06 15:40:00,
2013-01-06 08:45:00,25.6,24.4,30.03,ENE,61,0.0,0.0,95,0.00,,,0.00,Wunderground v.1.12,2013-01-06 15:45:00,
2013-01-06 08:50:00,25.9,24.7,30.03,ENE,61,0.0,0.0,95,0.00,,,0.00,Wunderground v.1.12,2013-01-06 15:50:00,
2013-01-06 09:00:00,25.8,24.6,30.03,ENE,61,0.0,0.0,95,0.00,,,0.00,Wunderground v.1.12,2013-01-06 16:00:00,
2013-01-06 09:05:00,25.6,24.6,30.03,ENE,61,0.0,0.0,96,0.00,,,0.00,Wunderground v.1.12,2013-01-06 16:05:00,
2013-01-06 09:10:00,25.8,24.6,30.03,ENE,61,0.0,0.0,95,0.00,,,0.00,Wunderground v.1.12,2013-01-06 16:10:00,
2013-01-06 09:15:00,25.5,24.3,30.03,ENE,61,0.0,0.0,95,0.00,,,0.00,Wunderground v.1.12,2013-01-06 16:15:00,
2013-01-06 09:20:00,25.6,24.4,30.03,ENE,61,0.0,0.0,95,0.00,,,0.00,Wunderground v.1.12,2013-01-06 16:20:00,
2013-01-06 09:25:00,25.8,24.8,30.04,ENE,61,0.0,0.0,96,0.00,,,0.00,Wunderground v.1.12,2013-01-06 16:25:00,
2013-01-06 09:35:00,25.8,24.8,30.04,ENE,61,0.0,0.0,96,0.00,,,0.00,Wunderground v.1.12,2013-01-06 16:35:00,
2013-01-06 09:40:00,26.1,25.1,30.04,ENE,61,0.0,0.0,96,0.00,,,0.00,Wunderground v.1.12,2013-01-06 16:40:00,
2013-01-06 09:45:00,26.0,24.8,30.05,ENE,61,0.0,0.0,95,0.00,,,0.00,Wunderground v.1.12,2013-01-06 16:45:00,
2013-01-06 09:50:00,26.2,25.2,30.05,ENE,61,0.0,0.0,96,0.00,,,0.00,Wunderground v.1.12,2013-01-06 16:50:00,
2013-01-06 09:55:00,25.9,24.9,30.05,ENE,61,0.0,0.0,96,0.00,,,0.00,Wunderground v.1.12,2013-01-06 16:55:00,
2013-01-06 10:05:00,26.0,25.0,30.05,ENE,65,0.0,0.0,96,0.00,,,0.00,Wunderground v.1.12,2013-01-06 17:05:00,
2013-01-06 10:10:00,26.0,25.0,30.05,ENE,65,0.0,0.0,96,0.00,,,0.00,Wunderground v.1.12,2013-01-06 17:10:00,
2013-01-06 10:15:00,26.2,25.2,30.05,ENE,65,0.0,0.0,96,0.00,,,0.00,Wunderground v.1.12,2013-01-06 17:15:00,
2013-01-06 10:20:00,26.4,25.7,30.05,ENE,65,0.0,0.0,97,0.00,,,0.00,Wunderground v.1.12,2013-01-06 17:20:00,
2013-01-06 10:25:00,26.5,25.5,30.05,ENE,64,0.0,0.0,96,0.00,,,0.00,Wunderground v.1.12,2013-01-06 17:25:00,
2013-01-06 10:30:00,26.4,25.4,30.06,ENE,64,0.0,0.0,96,0.00,,,0.00,Wunderground v.1.12,2013-01-06 17:30:00,
2013-01-06 10:35:00,27.0,26.0,30.05,ENE,64,0.0,0.0,96,0.00,,,0.00,Wunderground v.1.12,2013-01-06 17:35:00,
2013-01-06 10:40:00,26.9,26.2,30.06,ENE,65,0.0,0.0,97,0.00,,,0.00,Wunderground v.1.12,2013-01-06 17:40:00,
2013-01-06 10:45:00,27.2,26.2,30.06,ENE,64,0.0,0.0,96,0.00,,,0.00,Wunderground v.1.12,2013-01-06 17:45:00,
2013-01-06 10:50:00,27.2,26.2,30.06,ENE,65,0.0,0.0,96,0.00,,,0.00,Wunderground v.1.12,2013-01-06 17:50:00,
2013-01-06 10:55:00,27.6,26.6,30.06,ENE,65,0.0,0.0,96,0.00,,,0.00,Wunderground v.1.12,2013-01-06 17:55:00,
2013-01-06 11:00:00,27.2,26.2,30.06,ENE,65,0.0,0.0,96,0.00,,,0.00,Wunderground v.1.12,2013-01-06 18:00:00,
2013-01-06 11:10:00,27.8,26.8,30.05,ENE,64,0.0,0.0,96,0.00,,,0.00,Wunderground v.1.12,2013-01-06 18:10:00,
2013-01-06 11:15:00,27.7,26.7,30.05,ENE,65,0.0,0.0,96,0.00,,,0.00,Wunderground v.1.12,2013-01-06 18:15:00,
2013-01-06 11:20:00,27.9,26.9,30.05,ENE,65,0.0,0.0,96,0.00,,,0.00,Wunderground v.1.12,2013-01-06 18:20:00,
2013-01-06 11:25:00,27.7,26.7,30.05,ENE,64,0.0,0.0,96,0.00,,,0.00,Wunderground v.1.12,2013-01-06 18:25:00,
2013-01-06 11:30:00,28.2,27.2,30.05,ENE,64,0.0,0.0,96,0.00,,,0.00,Wunderground v.1.12,2013-01-06 18:30:00,
2013-01-06 11:40:00,28.1,27.1,30.05,ENE,65,0.0,0.0,96,0.00,,,0.00,Wunderground v.1.12,2013-01-06 18:40:00,
2013-01-06 11:45:00,28.3,27.3,30.05,ENE,65,0.0,0.0,96,0.00,,,0.00,Wunderground v.1.12,2013-01-06 18:45:00,
2013-01-06 11:50:00,28.3,27.3,30.04,ENE,64,0.0,0.0,96,0.00,,,0.00,Wunderground v.1.12,2013-01-06 18:50:00,
2013-01-06 11:55:00,28.3,27.3,30.04,ENE,64,0.0,0.0,96,0.00,,,0.00,Wunderground v.1.12,2013-01-06 18:55:00,
2013-01-06 12:00:00,28.4,27.4,30.04,ENE,64,0.0,0.0,96,0.00,,,0.00,Wunderground v.1.12,2013-01-06 19:00:00,
2013-01-06 12:05:00,28.8,27.8,30.04,North,0,0.0,0.0,96,0.00,,,0.00,Wunderground v.1.12,2013-01-06 19:05:00,
2013-01-06 12:15:00,29.5,28.5,30.04,NE,45,0.0,0.0,96,0.00,,,0.00,Wunderground v.1.12,2013-01-06 19:15:00,
2013-01-06 12:20:00,29.3,28.3,30.04,North,0,0.0,0.0,96,0.00,,,0.00,Wunderground v.1.12,2013-01-06 19:20:00,
2013-01-06 12:25:00,30.1,29.1,30.03,North,0,0.0,0.0,96,0.00,,,0.00,Wunderground v.1.12,2013-01-06 19:25:00,
2013-01-06 12:30:00,30.1,28.8,30.02,North,0,0.0,0.0,95,0.00,,,0.00,Wunderground v.1.12,2013-01-06 19:30:00,
2013-01-06 12:35:00,30.7,29.4,30.02,North,0,0.0,0.0,95,0.00,,,0.00,Wunderground v.1.12,2013-01-06 19:35:00,
2013-01-06 12:40:00,31.2,29.7,30.02,North,0,0.0,0.0,94,0.00,,,0.00,Wunderground v.1.12,2013-01-06 19:40:00,
2013-01-06 12:45:00,31.3,28.7,30.00,North,0,0.0,10.0,90,0.00,,,0.00,Wunderground v.1.12,2013-01-06 19:45:00,
2013-01-06 12:55:00,32.0,29.9,30.01,North,0,0.0,0.0,92,0.00,,,0.00,Wunderground v.1.12,2013-01-06 19:55:00,
2013-01-06 13:00:00,31.7,29.4,30.01,North,0,0.0,0.0,91,0.00,,,0.00,Wunderground v.1.12,2013-01-06 20:00:00,
2013-01-06 13:10:00,32.5,29.3,30.01,North,355,1.0,1.0,88,0.00,,,0.00,Wunderground v.1.12,2013-01-06 20:10:00,
2013-01-06 13:15:00,32.7,29.5,30.01,North,0,0.0,0.0,88,0.00,,,0.00,Wunderground v.1.12,2013-01-06 20:15:00,
2013-01-06 13:20:00,32.5,28.8,29.99,North,0,0.0,6.0,86,0.00,,,0.00,Wunderground v.1.12,2013-01-06 20:20:00,
2013-01-06 13:25:00,32.7,29.3,30.00,North,0,0.0,0.0,87,0.00,,,0.00,Wunderground v.1.12,2013-01-06 20:25:00,
2013-01-06 13:30:00,32.6,28.9,30.00,North,0,0.0,0.0,86,0.00,,,0.00,Wunderground v.1.12,2013-01-06 20:30:00,
2013-01-06 13:35:00,32.9,28.9,30.00,North,0,1.0,1.0,85,0.00,,,0.00,Wunderground v.1.12,2013-01-06 20:35:00,
2013-01-06 13:40:00,33.1,28.5,29.99,North,7,1.0,1.0,83,0.00,,,0.00,Wunderground v.1.12,2013-01-06 20:40:00,
2013-01-06 13:50:00,33.3,28.7,29.99,North,0,0.0,0.0,83,0.00,,,0.00,Wunderground v.1.12,2013-01-06 20:50:00,
2013-01-06 13:55:00,33.3,28.7,29.99,North,0,3.0,3.0,83,0.00,,,0.00,Wunderground v.1.12,2013-01-06 20:55:00,
2013-01-06 14:00:00,33.8,28.9,29.98,North,0,0.0,0.0,82,0.00,,,0.00,Wunderground v.1.12,2013-01-06 21:00:00,
2013-01-06 14:05:00,33.7,28.8,29.98,North,0,0.0,0.0,82,0.00,,,0.00,Wunderground v.1.12,2013-01-06 21:05:00,
2013-01-06 14:10:00,33.6,28.7,29.98,North,0,2.0,2.0,82,0.00,,,0.00,Wunderground v.1.12,2013-01-06 21:10:00,
2013-01-06 14:15:00,33.5,28.6,29.98,North,0,0.0,0.0,82,0.00,,,0.00,Wunderground v.1.12,2013-01-06 21:15:00,
2013-01-06 14:25:00,33.6,28.7,29.97,ENE,62,0.0,0.0,82,0.00,,,0.00,Wunderground v.1.12,2013-01-06 21:25:00,
2013-01-06 14:30:00,33.3,28.4,29.97,North,355,4.0,4.0,82,0.00,,,0.00,Wunderground v.1.12,2013-01-06 21:30:00,
2013-01-06 14:35:00,33.4,28.5,29.97,North,0,1.0,1.0,82,0.00,,,0.00,Wunderground v.1.12,2013-01-06 21:35:00,
2013-01-06 14:40:00,33.6,28.4,29.98,NNE,22,0.0,0.0,81,0.00,,,0.00,Wunderground v.1.12,2013-01-06 21:40:00,
2013-01-06 14:45:00,33.6,28.4,29.98,North,0,0.0,0.0,81,0.00,,,0.00,Wunderground v.1.12,2013-01-06 21:45:00,
2013-01-06 14:50:00,33.2,28.3,29.98,SSW,192,0.0,0.0,82,0.00,,,0.00,Wunderground v.1.12,2013-01-06 21:50:00,
2013-01-06 15:00:00,33.4,28.2,29.98,North,0,0.0,0.0,81,0.00,,,0.00,Wunderground v.1.12,2013-01-06 22:00:00,
2013-01-06 15:05:00,33.2,28.0,29.98,North,354,0.0,0.0,81,0.00,,,0.00,Wunderground v.1.12,2013-01-06 22:05:00,
2013-01-06 15:10:00,33.4,28.2,29.98,NNW,343,0.0,0.0,81,0.00,,,0.00,Wunderground v.1.12,2013-01-06 22:10:00,
2013-01-06 15:15:00,33.2,27.7,29.98,NNW,346,0.0,0.0,80,0.00,,,0.00,Wunderground v.1.12,2013-01-06 22:15:00,
2013-01-06 15:20:00,33.3,28.1,29.98,North,0,0.0,0.0,81,0.00,,,0.00,Wunderground v.1.12,2013-01-06 22:20:00,
2013-01-06 15:30:00,33.2,28.0,29.99,North,0,0.0,0.0,81,0.00,,,0.00,Wunderground v.1.12,2013-01-06 22:30:00,
2013-01-06 15:35:00,33.6,28.4,29.99,North,4,8.0,8.0,81,0.00,,,0.00,Wunderground v.1.12,2013-01-06 22:35:00,
2013-01-06 15:40:00,33.6,28.1,30.00,South,169,0.0,0.0,80,0.00,,,0.00,Wunderground v.1.12,2013-01-06 22:40:00,
2013-01-06 15:45:00,33.2,27.7,30.00,North,0,0.0,0.0,80,0.00,,,0.00,Wunderground v.1.12,2013-01-06 22:45:00,
2013-01-06 15:50:00,33.5,28.0,30.01,North,0,0.0,0.0,80,0.00,,,0.00,Wunderground v.1.12,2013-01-06 22:50:00,
2013-01-06 15:55:00,33.6,28.1,30.01,North,0,0.0,0.0,80,0.00,,,0.00,Wunderground v.1.12,2013-01-06 22:55:00,
2013-01-06 16:05:00,33.3,27.8,30.00,NNE,33,0.0,0.0,80,0.00,,,0.00,Wunderground v.1.12,2013-01-06 23:05:00,
2013-01-06 16:10:00,33.4,27.9,30.00,North,1,0.0,0.0,80,0.00,,,0.00,Wunderground v.1.12,2013-01-06 23:10:00,
2013-01-06 16:15:00,33.2,27.7,30.00,North,359,0.0,0.0,80,0.00,,,0.00,Wunderground v.1.12,2013-01-06 23:15:00,
2013-01-06 16:20:00,33.0,27.5,30.00,North,0,0.0,0.0,80,0.00,,,0.00,Wunderground v.1.12,2013-01-06 23:20:00,
2013-01-06 16:25:00,33.1,27.6,30.00,North,0,0.0,0.0,80,0.00,,,0.00,Wunderground v.1.12,2013-01-06 23:25:00,
2013-01-06 16:30:00,32.8,27.3,30.00,North,0,0.0,0.0,80,0.00,,,0.00,Wunderground v.1.12,2013-01-06 23:30:00,
2013-01-06 16:35:00,32.7,26.9,30.00,NNE,22,0.0,0.0,79,0.00,,,0.00,Wunderground v.1.12,2013-01-06 23:35:00,
2013-01-06 16:40:00,32.6,27.1,30.00,North,0,0.0,0.0,80,0.00,,,0.00,Wunderground v.1.12,2013-01-06 23:40:00,
2013-01-06 16:45:00,32.7,26.9,30.00,North,357,0.0,0.0,79,0.00,,,0.00,Wunderground v.1.12,2013-01-06 23:45:00,
2013-01-06 16:50:00,32.9,27.1,30.00,North,0,0.0,0.0,79,0.00,,,0.00,Wunderground v.1.12,2013-01-06 23:50:00,
2013-01-06 16:55:00,32.7,26.9,30.00,North,0,0.0,0.0,79,0.00,,,0.00,Wunderground v.1.12,2013-01-06 23:55:00,
2013-01-06 17:00:00,32.2,26.4,30.00,North,0,0.0,0.0,79,0.00,,,0.00,Wunderground v.1.12,2013-01-07 00:00:00,
2013-01-06 17:10:00,32.5,27.0,30.01,North,0,0.0,0.0,80,0.00,,,0.00,Wunderground v.1.12,2013-01-07 00:10:00,
2013-01-06 17:15:00,32.1,26.3,30.01,North,0,0.0,0.0,79,0.00,,,0.00,Wunderground v.1.12,2013-01-07 00:15:00,
2013-01-06 17:20:00,32.3,26.5,30.01,North,0,0.0,0.0,79,0.00,,,0.00,Wunderground v.1.12,2013-01-07 00:20:00,
2013-01-06 17:25:00,32.2,26.4,30.00,North,0,0.0,0.0,79,0.00,,,0.00,Wunderground v.1.12,2013-01-07 00:25:00,
2013-01-06 17:30:00,31.8,26.0,30.00,North,0,0.0,0.0,79,0.00,,,0.00,Wunderground v.1.12,2013-01-07 00:30:00,
2013-01-06 17:35:00,32.1,26.6,30.01,WSW,245,0.0,0.0,80,0.00,,,0.00,Wunderground v.1.12,2013-01-07 00:35:00,
2013-01-06 17:40:00,31.6,26.1,30.01,North,0,0.0,0.0,80,0.00,,,0.00,Wunderground v.1.12,2013-01-07 00:40:00,
2013-01-06 17:45:00,31.7,26.2,30.01,WSW,252,0.0,0.0,80,0.00,,,0.00,Wunderground v.1.12,2013-01-07 00:45:00,
2013-01-06 17:50:00,31.3,25.8,30.01,East,82,0.0,0.0,80,0.00,,,0.00,Wunderground v.1.12,2013-01-07 00:50:00,
2013-01-06 17:55:00,31.3,25.8,30.01,North,0,0.0,0.0,80,0.00,,,0.00,Wunderground v.1.12,2013-01-07 00:55:00,
2013-01-06 18:00:00,31.0,25.6,30.01,North,0,0.0,0.0,80,0.00,,,0.00,Wunderground v.1.12,2013-01-07 01:00:00,
2013-01-06 18:05:00,31.1,25.7,30.01,SSW,213,0.0,0.0,80,0.00,,,0.00,Wunderground v.1.12,2013-01-07 01:05:00,
2013-01-06 18:15:00,31.0,25.9,30.01,North,0,0.0,0.0,81,0.00,,,0.00,Wunderground v.1.12,2013-01-07 01:15:00,
2013-01-06 18:20:00,30.5,25.4,30.01,North,0,0.0,0.0,81,0.00,,,0.00,Wunderground v.1.12,2013-01-07 01:20:00,
2013-01-06 18:25:00,30.8,25.7,30.01,North,0,0.0,0.0,81,0.00,,,0.00,Wunderground v.1.12,2013-01-07 01:25:00,
2013-01-06 18:30:00,30.9,25.8,30.01,North,0,0.0,0.0,81,0.00,,,0.00,Wunderground v.1.12,2013-01-07 01:30:00,
2013-01-06 18:35:00,30.7,25.9,30.01,North,0,0.0,0.0,82,0.00,,,0.00,Wunderground v.1.12,2013-01-07 01:35:00,
2013-01-06 18:45:00,30.5,25.7,30.01,North,0,0.0,0.0,82,0.00,,,0.00,Wunderground v.1.12,2013-01-07 01:45:00,
2013-01-06 18:50:00,30.0,25.2,30.01,North,0,0.0,0.0,82,0.00,,,0.00,Wunderground v.1.12,2013-01-07 01:50:00,
2013-01-06 18:55:00,30.2,25.4,30.01,North,0,0.0,0.0,82,0.00,,,0.00,Wunderground v.1.12,2013-01-07 01:55:00,
2013-01-06 19:00:00,30.1,25.3,30.01,North,0,0.0,0.0,82,0.00,,,0.00,Wunderground v.1.12,2013-01-07 02:00:00,
2013-01-06 19:05:00,29.9,25.1,30.01,North,0,0.0,0.0,82,0.00,,,0.00,Wunderground v.1.12,2013-01-07 02:05:00,
2013-01-06 19:15:00,30.1,25.6,30.01,North,0,0.0,0.0,83,0.00,,,0.00,Wunderground v.1.12,2013-01-07 02:15:00,
2013-01-06 19:20:00,29.9,25.1,30.01,North,0,0.0,0.0,82,0.00,,,0.00,Wunderground v.1.12,2013-01-07 02:20:00,
2013-01-06 19:25:00,29.9,25.1,30.01,North,0,0.0,0.0,82,0.00,,,0.00,Wunderground v.1.12,2013-01-07 02:25:00,
2013-01-06 19:30:00,30.4,25.9,30.01,North,0,0.0,0.0,83,0.00,,,0.00,Wunderground v.1.12,2013-01-07 02:30:00,
2013-01-06 19:35:00,30.2,25.7,30.01,North,0,0.0,0.0,83,0.00,,,0.00,Wunderground v.1.12,2013-01-07 02:35:00,
2013-01-06 19:40:00,30.1,25.6,30.01,North,0,0.0,0.0,83,0.00,,,0.00,Wunderground v.1.12,2013-01-07 02:40:00,
2013-01-06 19:50:00,30.2,25.7,30.01,North,0,0.0,0.0,83,0.00,,,0.00,Wunderground v.1.12,2013-01-07 02:50:00,
2013-01-06 19:55:00,30.3,25.8,30.01,North,0,0.0,0.0,83,0.00,,,0.00,Wunderground v.1.12,2013-01-07 02:55:00,
2013-01-06 20:00:00,30.0,25.5,30.01,North,0,0.0,0.0,83,0.00,,,0.00,Wunderground v.1.12,2013-01-07 03:00:00,
2013-01-06 20:05:00,30.0,25.8,30.01,North,0,0.0,0.0,84,0.00,,,0.00,Wunderground v.1.12,2013-01-07 03:05:00,
2013-01-06 20:10:00,30.2,25.9,30.00,North,0,0.0,0.0,84,0.00,,,0.00,Wunderground v.1.12,2013-01-07 03:10:00,
2013-01-06 20:20:00,30.4,26.1,30.00,North,0,0.0,0.0,84,0.00,,,0.00,Wunderground v.1.12,2013-01-07 03:20:00,
2013-01-06 20:25:00,30.3,26.0,30.01,NE,42,0.0,0.0,84,0.00,,,0.00,Wunderground v.1.12,2013-01-07 03:25:00,
2013-01-06 20:30:00,30.0,25.8,30.01,ENE,70,0.0,0.0,84,0.00,,,0.00,Wunderground v.1.12,2013-01-07 03:30:00,
2013-01-06 20:35:00,30.1,25.8,30.01,NE,42,0.0,0.0,84,0.00,,,0.00,Wunderground v.1.12,2013-01-07 03:35:00,
2013-01-06 20:40:00,30.7,26.4,30.01,North,0,0.0,0.0,84,0.00,,,0.00,Wunderground v.1.12,2013-01-07 03:40:00,
2013-01-06 20:50:00,30.6,26.6,30.01,North,0,0.0,0.0,85,0.00,,,0.00,Wunderground v.1.12,2013-01-07 03:50:00,
2013-01-06 20:55:00,30.6,26.6,30.01,North,0,0.0,0.0,85,0.00,,,0.00,Wunderground v.1.12,2013-01-07 03:55:00,
2013-01-06 21:00:00,30.9,26.6,30.01,North,0,0.0,0.0,84,0.00,,,0.00,Wunderground v.1.12,2013-01-07 04:00:00,
2013-01-06 21:05:00,30.9,26.6,30.01,North,0,0.0,0.0,84,0.00,,,0.00,Wunderground v.1.12,2013-01-07 04:05:00,
2013-01-06 21:10:00,30.6,26.3,30.01,ENE,60,0.0,0.0,84,0.00,,,0.00,Wunderground v.1.12,2013-01-07 04:10:00,
2013-01-06 21:15:00,30.9,26.9,30.01,North,0,0.0,0.0,85,0.00,,,0.00,Wunderground v.1.12,2013-01-07 04:15:00,
2013-01-06 21:25:00,30.7,26.7,30.01,North,359,6.0,6.0,85,0.00,,,0.00,Wunderground v.1.12,2013-01-07 04:25:00,
2013-01-06 21:30:00,31.2,27.2,30.02,North,0,5.0,5.0,85,0.00,,,0.00,Wunderground v.1.12,2013-01-07 04:30:00,
2013-01-06 21:35:00,30.9,26.9,30.01,North,0,0.0,0.0,85,0.00,,,0.00,Wunderground v.1.12,2013-01-07 04:35:00,
2013-01-06 21:40:00,31.0,27.0,30.02,North,0,0.0,0.0,85,0.00,,,0.00,Wunderground v.1.12,2013-01-07 04:40:00,
2013-01-06 21:45:00,31.0,26.7,30.01,North,0,0.0,0.0,84,0.00,,,0.00,Wunderground v.1.12,2013-01-07 04:45:00,
2013-01-06 21:55:00,31.2,27.2,30.01,West,259,0.0,0.0,85,0.00,,,0.00,Wunderground v.1.12,2013-01-07 04:55:00,
2013-01-06 22:00:00,31.1,27.1,30.01,North,0,0.0,0.0,85,0.00,,,0.00,Wunderground v.1.12,2013-01-07 05:00:00,
2013-01-06 22:05:00,31.5,27.5,30.01,NE,52,0.0,0.0,85,0.00,,,0.00,Wunderground v.1.12,2013-01-07 05:05:00,
2013-01-06 22:10:00,31.2,27.2,30.01,North,0,0.0,0.0,85,0.00,,,0.00,Wunderground v.1.12,2013-01-07 05:10:00,
2013-01-06 22:15:00,31.2,27.5,30.01,North,0,0.0,0.0,86,0.00,,,0.00,Wunderground v.1.12,2013-01-07 05:15:00,
2013-01-06 22:25:00,31.2,27.5,30.02,North,0,0.0,0.0,86,0.00,,,0.00,Wunderground v.1.12,2013-01-07 05:25:00,
2013-01-06 22:30:00,31.4,28.0,30.02,North,0,0.0,0.0,87,0.00,,,0.00,Wunderground v.1.12,2013-01-07 05:30:00,
2013-01-06 22:35:00,31.3,27.9,30.00,North,0,0.0,3.0,87,0.00,,,0.00,Wunderground v.1.12,2013-01-07 05:35:00,
2013-01-06 22:40:00,31.0,27.9,30.02,North,0,0.0,0.0,88,0.00,,,0.00,Wunderground v.1.12,2013-01-07 05:40:00,
2013-01-06 22:45:00,31.0,27.9,30.02,NNE,17,0.0,0.0,88,0.00,,,0.00,Wunderground v.1.12,2013-01-07 05:45:00,
2013-01-06 22:50:00,31.2,28.3,30.02,North,0,0.0,0.0,89,0.00,,,0.00,Wunderground v.1.12,2013-01-07 05:50:00,
2013-01-06 23:00:00,30.8,28.2,30.02,North,0,0.0,0.0,90,0.00,,,0.00,Wunderground v.1.12,2013-01-07 06:00:00,
2013-01-06 23:05:00,31.1,28.5,30.00,North,0,0.0,3.0,90,0.00,,,0.00,Wunderground v.1.12,2013-01-07 06:05:00,
2013-01-06 23:10:00,30.8,28.5,30.02,North,0,0.0,0.0,91,0.00,,,0.00,Wunderground v.1.12,2013-01-07 06:10:00,
2013-01-06 23:15:00,30.9,28.3,30.02,North,0,0.0,0.0,90,0.00,,,0.00,Wunderground v.1.12,2013-01-07 06:15:00,
2013-01-06 23:20:00,31.1,28.5,30.02,North,0,0.0,0.0,90,0.00,,,0.00,Wunderground v.1.12,2013-01-07 06:20:00,
2013-01-06 23:30:00,30.8,28.5,30.01,North,0,0.0,0.0,91,0.00,,,0.00,Wunderground v.1.12,2013-01-07 06:30:00,
2013-01-06 23:35:00,30.8,28.5,30.01,North,0,0.0,0.0,91,0.00,,,0.00,Wunderground v.1.12,2013-01-07 06:35:00,
2013-01-06 23:40:00,30.6,28.3,30.01,North,0,0.0,0.0,91,0.00,,,0.00,Wunderground v.1.12,2013-01-07 06:40:00,
2013-01-06 23:45:00,30.6,28.0,30.01,North,0,0.0,0.0,90,0.00,,,0.00,Wunderground v.1.12,2013-01-07 06:45:00,
2013-01-06 23:50:00,31.1,28.5,30.01,ENE,58,0.0,0.0,90,0.00,,,0.00,Wunderground v.1.12,2013-01-07 06:50:00,